User: anonymous   Login
Location: Unspecified
(0.0000°N, 0.0000°E)
Time: 08:42:25
(UTC+01:00)
Language:

ATLAS 3B CENTAUR R/B - Orbit

View from above orbital plane
View from above orbital plane
View from above satellite
View from above satellite

Ground track
Ground track

The orbit data is extracted from the following two-line orbital elements,

1 28118U 03057B   16344.14275203  .00055453  00000-0  89060-3 0  9995
2 28118  28.1180 262.9459 3164205 173.5850 191.7714  9.14308877272096
Epoch (UTC): 09 December 2016 03:25:33
Eccentricity: 0.3164205
inclination: 28.1180°
perigee height: 225 km
apogee height: 6339 km
right ascension of ascending node: 262.9459°
argument of perigee: 173.5850°
revolutions per day: 9.14308877
mean anomaly at epoch: 191.7714°
orbit number at epoch: 27209

The dashed part of the orbit path shows where the satellite is in the earth's shadow,  

DLR